MSR731 HECA-EDDB

Flight info

Callsign MSR731
Flight time 4h 6m
Altitude 38000
Route CVO L617 NOZ L551 ANTAR UN133 KOROS DCT PEREN UL863 EVIVI L863 OKANA DCT TONDO DCT BEGLA DCT NAVTI DCT BODAL DCT ODLIV DCT LEGAZ DCT BEFRE T204 IVDUF/N0414F300 T204 NUKRO
Aircraft A20N/M-SDE2E3FGHIRWXY/LB1

Departure

Time 2026-05-06 20:55
Airport Cairo International Airport (HECA)

Arrival

Time 2026-05-07 01:01
Airport Berlin Brandenburg Airport (EDDB)
Time Latitude Longitude Altitude Speed Heading
2026-05-06 20:26 30.10715 31.39551 377 ft 0 kts 73°
2026-05-06 20:38 30.10711 31.39535 377 ft 3 kts 73°
2026-05-06 20:39 30.10706 31.39514 377 ft 3 kts 73°
2026-05-06 20:39 30.10700 31.39494 377 ft 2 kts 78°
2026-05-06 20:39 30.10704 31.39475 377 ft 2 kts 150°
2026-05-06 20:39 30.10708 31.39473 377 ft 0 kts 166°
2026-05-06 20:41 30.10707 31.39473 377 ft 0 kts 166°
2026-05-06 20:41 30.10705 31.39473 377 ft 1 kts 166°
2026-05-06 20:41 30.10698 31.39475 377 ft 2 kts 166°
2026-05-06 20:48 30.10696 31.39476 377 ft 1 kts 166°
2026-05-06 20:49 30.10682 31.39478 377 ft 3 kts 177°
2026-05-06 20:49 30.10653 31.39479 377 ft 6 kts 177°
2026-05-06 20:49 30.10623 31.39492 377 ft 5 kts 145°
2026-05-06 20:49 30.10607 31.39537 377 ft 7 kts 87°
2026-05-06 20:50 30.10622 31.39601 377 ft 9 kts 76°
2026-05-06 20:50 30.10636 31.39677 377 ft 9 kts 87°
2026-05-06 20:50 30.10613 31.39720 377 ft 5 kts 144°
2026-05-06 20:50 30.10580 31.39733 377 ft 6 kts 165°
2026-05-06 20:51 30.10531 31.39748 377 ft 9 kts 165°
2026-05-06 20:51 30.10464 31.39769 377 ft 11 kts 165°
2026-05-06 20:51 30.10386 31.39790 377 ft 12 kts 179°
2026-05-06 20:51 30.10319 31.39745 377 ft 11 kts 226°
2026-05-06 20:52 30.10265 31.39671 377 ft 13 kts 230°
2026-05-06 20:52 30.10200 31.39588 377 ft 15 kts 217°
2026-05-06 20:52 30.10110 31.39605 377 ft 14 kts 127°
2026-05-06 20:52 30.10046 31.39672 377 ft 0 kts 143°
2026-05-06 20:53 30.10043 31.39674 377 ft 2 kts 143°
2026-05-06 20:53 30.10029 31.39689 377 ft 4 kts 134°
2026-05-06 20:53 30.10012 31.39722 377 ft 6 kts 108°
2026-05-06 20:54 30.10007 31.39785 377 ft 10 kts 91°
2026-05-06 20:54 30.10015 31.39872 377 ft 12 kts 80°
2026-05-06 20:54 30.10058 31.39947 377 ft 14 kts 48°
2026-05-06 20:54 30.10272 31.40230 377 ft 84 kts 51°
2026-05-06 20:55 30.10830 31.40976 379 ft 158 kts 48°
2026-05-06 20:55 30.11571 31.42037 817 ft 179 kts 47°
2026-05-06 20:55 30.12443 31.43145 1453 ft 186 kts 39°
2026-05-06 20:55 30.13627 31.43579 2304 ft 190 kts 356°
2026-05-06 20:56 30.14883 31.42854 2703 ft 229 kts 315°
2026-05-06 20:56 30.15549 31.41052 3268 ft 258 kts 276°
2026-05-06 20:56 30.15124 31.39047 4119 ft 268 kts 239°
2026-05-06 20:56 30.13762 31.37649 5133 ft 271 kts 206°
2026-05-06 20:57 30.11904 31.37292 6039 ft 277 kts 179°
2026-05-06 20:57 30.09959 31.37258 6787 ft 283 kts 193°
2026-05-06 20:57 30.08160 31.36341 7499 ft 284 kts 220°
2026-05-06 20:57 30.06897 31.34652 8375 ft 280 kts 243°
2026-05-06 20:58 30.06353 31.32529 9205 ft 277 kts 270°
2026-05-06 20:58 30.06685 31.30381 10001 ft 278 kts 295°
2026-05-06 20:58 30.07737 31.28502 10485 ft 291 kts 315°
2026-05-06 20:58 30.09490 31.27173 10783 ft 313 kts 338°
2026-05-06 20:59 30.11683 31.26537 11111 ft 332 kts 348°
2026-05-06 20:59 30.13971 31.26106 11591 ft 341 kts 349°
2026-05-06 20:59 30.16332 31.25699 12257 ft 345 kts 350°
2026-05-06 20:59 30.18727 31.25293 12943 ft 350 kts 349°
2026-05-06 21:00 30.21112 31.24797 13627 ft 353 kts 341°
2026-05-06 21:00 30.23345 31.23645 14325 ft 353 kts 328°
2026-05-06 21:00 30.25350 31.21999 15006 ft 355 kts 319°
2026-05-06 21:00 30.27208 31.20086 15653 ft 359 kts 315°
2026-05-06 21:01 30.28996 31.18052 16309 ft 362 kts 313°
2026-05-06 21:01 30.30789 31.15961 16978 ft 366 kts 313°
2026-05-06 21:01 30.32604 31.13868 17641 ft 370 kts 314°
2026-05-06 21:01 30.34455 31.11780 18312 ft 373 kts 314°
2026-05-06 21:02 30.36306 31.09732 18876 ft 377 kts 315°
2026-05-06 21:02 30.38246 31.07616 19456 ft 381 kts 315°
2026-05-06 21:02 30.40165 31.05540 20032 ft 384 kts 315°
2026-05-06 21:02 30.42105 31.03447 20605 ft 387 kts 315°
2026-05-06 21:03 30.44094 31.01302 21167 ft 390 kts 315°
2026-05-06 21:03 30.46084 30.99155 21728 ft 393 kts 315°
2026-05-06 21:03 30.48083 30.96994 22270 ft 396 kts 316°
2026-05-06 21:03 30.50088 30.94822 22845 ft 399 kts 316°
2026-05-06 21:04 30.52110 30.92631 23444 ft 400 kts 316°
2026-05-06 21:04 30.53466 30.91161 23779 ft 402 kts 316°
2026-05-06 21:04 30.55508 30.88944 24221 ft 405 kts 316°
2026-05-06 21:04 30.57580 30.86693 24653 ft 408 kts 316°
2026-05-06 21:05 30.59673 30.84418 25116 ft 411 kts 316°
2026-05-06 21:05 30.61764 30.82144 25557 ft 413 kts 316°
2026-05-06 21:05 30.63882 30.79840 25992 ft 416 kts 315°
2026-05-06 21:05 30.65987 30.77547 26416 ft 418 kts 315°
2026-05-06 21:06 30.68122 30.75222 26828 ft 420 kts 315°
2026-05-06 21:06 30.70248 30.72903 27224 ft 423 kts 315°
2026-05-06 21:06 30.72400 30.70555 27614 ft 425 kts 315°
2026-05-06 21:06 30.74528 30.68232 27986 ft 427 kts 315°
2026-05-06 21:07 30.76711 30.65848 28358 ft 430 kts 315°
2026-05-06 21:07 30.78868 30.63490 28729 ft 432 kts 315°
2026-05-06 21:07 30.81076 30.61076 29099 ft 434 kts 315°
2026-05-06 21:07 30.83272 30.58672 29472 ft 436 kts 315°
2026-05-06 21:08 30.85469 30.56266 29873 ft 437 kts 315°
2026-05-06 21:08 30.87663 30.53862 30300 ft 437 kts 315°
2026-05-06 21:08 30.89869 30.51443 30737 ft 435 kts 315°
2026-05-06 21:08 30.92069 30.49030 31159 ft 434 kts 315°
2026-05-06 21:09 30.94267 30.46617 31564 ft 433 kts 315°
2026-05-06 21:09 30.96457 30.44210 31951 ft 431 kts 315°
2026-05-06 21:09 30.98620 30.41832 32347 ft 430 kts 315°
2026-05-06 21:09 31.00813 30.39419 32735 ft 429 kts 315°
2026-05-06 21:10 31.02966 30.37048 33098 ft 428 kts 315°
2026-05-06 21:10 31.05120 30.34674 33456 ft 427 kts 314°
2026-05-06 21:10 31.07148 30.32133 33809 ft 425 kts 307°
2026-05-06 21:10 31.08842 30.29334 34134 ft 422 kts 299°
2026-05-06 21:11 31.10153 30.26269 34427 ft 420 kts 291°
2026-05-06 21:11 31.11176 30.23083 34687 ft 419 kts 288°
2026-05-06 21:11 31.12099 30.19892 34943 ft 419 kts 287°
2026-05-06 21:11 31.12982 30.16648 35200 ft 418 kts 286°
2026-05-06 21:12 31.13840 30.13414 35451 ft 418 kts 286°
2026-05-06 21:12 31.14693 30.10190 35705 ft 417 kts 286°
2026-05-06 21:12 31.15556 30.06944 35960 ft 416 kts 287°
2026-05-06 21:12 31.16427 30.03725 36191 ft 416 kts 288°
2026-05-06 21:13 31.17526 30.00597 36401 ft 417 kts 295°
2026-05-06 21:13 31.18986 29.97663 36597 ft 419 kts 303°
2026-05-06 21:13 31.20822 29.95009 36794 ft 421 kts 311°
2026-05-06 21:13 31.23000 29.92739 36979 ft 425 kts 321°
2026-05-06 21:14 31.25486 29.90854 37179 ft 427 kts 326°
2026-05-06 21:14 31.28098 29.89122 37413 ft 427 kts 328°
2026-05-06 21:14 31.30692 29.87497 37616 ft 427 kts 329°
2026-05-06 21:14 31.33318 29.85889 37785 ft 427 kts 329°
2026-05-06 21:15 31.35953 29.84281 37949 ft 427 kts 329°
2026-05-06 21:15 31.38600 29.82657 38099 ft 428 kts 329°
2026-05-06 21:15 31.41239 29.81024 38107 ft 428 kts 329°
2026-05-06 21:16 31.46457 29.77767 38110 ft 426 kts 328°
2026-05-06 21:16 31.51687 29.74482 38111 ft 425 kts 328°
2026-05-06 21:17 31.56905 29.71198 38117 ft 425 kts 328°
2026-05-06 21:17 31.62080 29.67939 38116 ft 424 kts 328°
2026-05-06 21:18 31.67281 29.64660 38113 ft 424 kts 328°
2026-05-06 21:18 31.72482 29.61377 38119 ft 424 kts 328°
2026-05-06 21:19 31.77685 29.58088 38119 ft 424 kts 328°
2026-05-06 21:19 31.82877 29.54802 38134 ft 424 kts 328°
2026-05-06 21:20 31.88059 29.51519 38118 ft 423 kts 328°
2026-05-06 21:20 31.93251 29.48225 38126 ft 423 kts 328°
2026-05-06 21:21 31.98413 29.44946 38114 ft 423 kts 328°
2026-05-06 21:21 32.03585 29.41655 38120 ft 423 kts 328°
2026-05-06 21:22 32.08785 29.38343 38124 ft 423 kts 328°
2026-05-06 21:22 32.13934 29.35059 38121 ft 423 kts 328°
2026-05-06 21:23 32.19107 29.31756 38121 ft 422 kts 328°
2026-05-06 21:23 32.24264 29.28457 38118 ft 422 kts 328°
2026-05-06 21:24 32.29445 29.25136 38120 ft 422 kts 328°
2026-05-06 21:24 32.34584 29.21838 38118 ft 421 kts 328°
2026-05-06 21:25 32.39758 29.18513 38119 ft 421 kts 328°
2026-05-06 21:25 32.44901 29.15204 38116 ft 421 kts 328°
2026-05-06 21:26 32.50027 29.11901 38116 ft 421 kts 328°
2026-05-06 21:26 32.55191 29.08570 38116 ft 421 kts 328°
2026-05-06 21:27 32.60317 29.05258 38118 ft 421 kts 328°
2026-05-06 21:27 32.65463 29.01930 38119 ft 421 kts 328°
2026-05-06 21:28 32.70587 28.98612 38116 ft 420 kts 328°
2026-05-06 21:28 32.75737 28.95272 38117 ft 420 kts 328°
2026-05-06 21:29 32.80831 28.91963 38116 ft 419 kts 328°
2026-05-06 21:29 32.85945 28.88638 38113 ft 419 kts 328°
2026-05-06 21:30 32.91068 28.85302 38117 ft 419 kts 328°
2026-05-06 21:30 32.96182 28.81968 38131 ft 418 kts 328°
2026-05-06 21:31 33.01262 28.78652 38119 ft 418 kts 328°
2026-05-06 21:31 33.06370 28.75312 38114 ft 418 kts 328°
2026-05-06 21:32 33.11488 28.71962 38117 ft 418 kts 328°
2026-05-06 21:32 33.19129 28.66952 38119 ft 418 kts 328°
2026-05-06 21:33 33.24188 28.63629 38133 ft 418 kts 328°
2026-05-06 21:33 33.29283 28.60279 38117 ft 418 kts 328°
2026-05-06 21:34 33.34363 28.56933 38121 ft 418 kts 328°
2026-05-06 21:34 33.39459 28.53573 38116 ft 418 kts 328°
2026-05-06 21:35 33.44567 28.50200 38114 ft 418 kts 328°
2026-05-06 21:35 33.49647 28.46841 38116 ft 418 kts 328°
2026-05-06 21:36 33.54738 28.43470 38116 ft 418 kts 328°
2026-05-06 21:36 33.59852 28.40080 38116 ft 418 kts 328°
2026-05-06 21:37 33.64917 28.36717 38116 ft 419 kts 328°
2026-05-06 21:37 33.70015 28.33328 38116 ft 418 kts 328°
2026-05-06 21:38 33.75113 28.29934 38113 ft 418 kts 328°
2026-05-06 21:38 33.80208 28.26536 38127 ft 418 kts 328°
2026-05-06 21:39 33.85291 28.23117 38116 ft 418 kts 328°
2026-05-06 21:39 33.90332 28.19710 38116 ft 418 kts 328°
2026-05-06 21:40 33.95411 28.16273 38116 ft 418 kts 328°
2026-05-06 21:40 34.00484 28.12837 38116 ft 418 kts 328°
2026-05-06 21:41 34.05534 28.09414 38116 ft 418 kts 328°
2026-05-06 21:41 34.10596 28.05978 38110 ft 417 kts 328°
2026-05-06 21:42 34.15663 28.02534 38116 ft 417 kts 328°
2026-05-06 21:42 34.20706 27.99100 38116 ft 417 kts 328°
2026-05-06 21:43 34.25763 27.95653 38116 ft 417 kts 328°
2026-05-06 21:43 34.30784 27.92225 38116 ft 417 kts 328°
2026-05-06 21:44 34.35838 27.88771 38126 ft 417 kts 328°
2026-05-06 21:44 34.40893 27.85310 38116 ft 416 kts 328°
2026-05-06 21:45 34.45912 27.81871 38116 ft 416 kts 327°
2026-05-06 21:45 34.50954 27.78410 38113 ft 416 kts 327°
2026-05-06 21:46 34.55989 27.74945 38113 ft 415 kts 327°
2026-05-06 21:46 34.60987 27.71492 38116 ft 416 kts 327°
2026-05-06 21:47 34.66016 27.68010 38117 ft 415 kts 327°
2026-05-06 21:47 34.71039 27.64529 38115 ft 415 kts 327°
2026-05-06 21:48 34.76037 27.61061 38115 ft 415 kts 327°
2026-05-06 21:48 34.81047 27.57580 38115 ft 415 kts 327°
2026-05-06 21:49 34.86063 27.54091 38115 ft 415 kts 327°
2026-05-06 21:49 34.91067 27.50604 38129 ft 415 kts 327°
2026-05-06 21:50 34.95226 27.47703 38113 ft 414 kts 327°
2026-05-06 21:50 35.00238 27.44201 38114 ft 414 kts 327°
2026-05-06 21:51 35.05214 27.40719 38113 ft 414 kts 327°
2026-05-06 21:51 35.10190 27.37234 38113 ft 414 kts 327°
2026-05-06 21:52 35.15160 27.33747 38113 ft 414 kts 327°
2026-05-06 21:52 35.20175 27.30223 38110 ft 414 kts 327°
2026-05-06 21:53 35.25134 27.26734 38108 ft 414 kts 327°
2026-05-06 21:53 35.30148 27.23202 38113 ft 414 kts 327°
2026-05-06 21:54 35.35127 27.19689 38113 ft 414 kts 327°
2026-05-06 21:54 35.40128 27.16155 38103 ft 414 kts 327°
2026-05-06 21:55 35.45268 27.12979 38106 ft 416 kts 332°
2026-05-06 21:55 35.50546 27.09975 38102 ft 417 kts 332°
2026-05-06 21:56 35.55800 27.07029 38105 ft 417 kts 332°
2026-05-06 21:56 35.61099 27.04054 38107 ft 417 kts 332°
2026-05-06 21:57 35.66382 27.01076 38109 ft 417 kts 332°
2026-05-06 21:57 35.71630 26.98110 38126 ft 417 kts 332°
2026-05-06 21:58 35.76898 26.95127 38113 ft 416 kts 332°
2026-05-06 21:58 35.82140 26.92155 38113 ft 415 kts 332°
2026-05-06 21:59 35.87400 26.89164 38113 ft 415 kts 332°
2026-05-06 21:59 35.92658 26.86157 38111 ft 416 kts 332°
2026-05-06 22:00 35.97906 26.83149 38123 ft 416 kts 332°
2026-05-06 22:00 36.03149 26.80142 38113 ft 415 kts 332°
2026-05-06 22:01 36.08350 26.77154 38111 ft 414 kts 332°
2026-05-06 22:01 36.13590 26.74139 38113 ft 414 kts 332°
2026-05-06 22:02 36.18824 26.71123 38113 ft 414 kts 332°
2026-05-06 22:02 36.24023 26.68123 38116 ft 414 kts 332°
2026-05-06 22:03 36.29255 26.65100 38111 ft 413 kts 332°
2026-05-06 22:03 36.34454 26.62090 38111 ft 413 kts 332°
2026-05-06 22:04 36.39653 26.59074 38108 ft 413 kts 332°
2026-05-06 22:04 36.44867 26.56046 38103 ft 413 kts 332°
2026-05-06 22:05 36.50098 26.53003 38103 ft 414 kts 332°
2026-05-06 22:05 36.55322 26.49960 38098 ft 413 kts 332°
2026-05-06 22:06 36.60520 26.46923 38095 ft 413 kts 332°
2026-05-06 22:06 36.65700 26.43890 38117 ft 413 kts 332°
2026-05-06 22:07 36.70922 26.40830 38116 ft 413 kts 332°
2026-05-06 22:07 36.76132 26.37772 38106 ft 413 kts 332°
2026-05-06 22:08 36.81320 26.34723 38107 ft 412 kts 332°
2026-05-06 22:08 36.86475 26.31688 38109 ft 412 kts 332°
2026-05-06 22:09 36.91674 26.28622 38115 ft 412 kts 332°
2026-05-06 22:09 36.96844 26.25570 38106 ft 412 kts 332°
2026-05-06 22:10 37.02023 26.22457 38108 ft 413 kts 332°
2026-05-06 22:10 37.07158 26.19319 38110 ft 412 kts 331°
2026-05-06 22:11 37.12312 26.16162 38099 ft 412 kts 331°
2026-05-06 22:11 37.17468 26.13005 38101 ft 412 kts 332°
2026-05-06 22:12 37.22616 26.09851 38097 ft 412 kts 331°
2026-05-06 22:12 37.27792 26.06676 38102 ft 412 kts 331°
2026-05-06 22:13 37.32924 26.03523 38105 ft 411 kts 331°
2026-05-06 22:13 37.38072 26.00355 38101 ft 411 kts 331°
2026-05-06 22:14 37.43217 25.97184 38109 ft 411 kts 331°
2026-05-06 22:14 37.48329 25.94028 38104 ft 412 kts 331°
2026-05-06 22:15 37.53500 25.90830 38104 ft 413 kts 332°
2026-05-06 22:15 37.58629 25.87655 38102 ft 412 kts 332°
2026-05-06 22:16 37.63798 25.84449 38104 ft 412 kts 331°
2026-05-06 22:16 37.68922 25.81264 38101 ft 412 kts 331°
2026-05-06 22:17 37.74053 25.78069 38100 ft 412 kts 331°
2026-05-06 22:17 37.79205 25.74857 38101 ft 412 kts 331°
2026-05-06 22:18 37.84351 25.71643 38101 ft 412 kts 331°
2026-05-06 22:18 37.89477 25.68438 38092 ft 412 kts 331°
2026-05-06 22:19 37.94627 25.65212 38097 ft 412 kts 331°
2026-05-06 22:19 37.99757 25.61993 38089 ft 413 kts 331°
2026-05-06 22:20 38.04916 25.58751 38095 ft 412 kts 332°
2026-05-06 22:20 38.10054 25.55518 38093 ft 412 kts 332°
2026-05-06 22:21 38.15155 25.52303 38091 ft 412 kts 331°
2026-05-06 22:21 38.20290 25.49060 38092 ft 412 kts 331°
2026-05-06 22:22 38.25430 25.45810 38091 ft 412 kts 331°
2026-05-06 22:22 38.30530 25.42580 38091 ft 411 kts 331°
2026-05-06 22:23 38.35663 25.39324 38088 ft 410 kts 331°
2026-05-06 22:23 38.40779 25.36073 38086 ft 410 kts 331°
2026-05-06 22:24 38.45891 25.32820 38084 ft 410 kts 331°
2026-05-06 22:24 38.50988 25.29571 38097 ft 411 kts 331°
2026-05-06 22:25 38.56091 25.26313 38083 ft 411 kts 331°
2026-05-06 22:25 38.61204 25.23043 38080 ft 410 kts 331°
2026-05-06 22:26 38.66308 25.19775 38081 ft 410 kts 331°
2026-05-06 22:26 38.71424 25.16493 38081 ft 410 kts 331°
2026-05-06 22:27 38.76526 25.13214 38089 ft 410 kts 331°
2026-05-06 22:27 38.81602 25.09948 38078 ft 409 kts 331°
2026-05-06 22:28 38.86697 25.06664 38078 ft 409 kts 331°
2026-05-06 22:28 38.91764 25.03392 38078 ft 409 kts 331°
2026-05-06 22:29 38.96875 25.00087 38069 ft 409 kts 331°
2026-05-06 22:29 39.01945 24.96803 38074 ft 409 kts 331°
2026-05-06 22:30 39.07028 24.93506 38075 ft 409 kts 331°
2026-05-06 22:30 39.12140 24.90226 38066 ft 409 kts 332°
2026-05-06 22:31 39.17259 24.87052 38072 ft 409 kts 332°
2026-05-06 22:31 39.22403 24.83882 38070 ft 409 kts 332°
2026-05-06 22:32 39.27521 24.80714 38077 ft 409 kts 332°
2026-05-06 22:32 39.32637 24.77533 38074 ft 408 kts 332°
2026-05-06 22:33 39.37738 24.74354 38065 ft 408 kts 332°
2026-05-06 22:33 39.42872 24.71149 38067 ft 408 kts 332°
2026-05-06 22:34 39.47988 24.67950 38068 ft 408 kts 332°
2026-05-06 22:34 39.53099 24.64750 38070 ft 408 kts 332°
2026-05-06 22:35 39.58175 24.61566 38064 ft 407 kts 332°
2026-05-06 22:35 39.63283 24.58357 38065 ft 407 kts 332°
2026-05-06 22:36 39.68388 24.55144 38065 ft 407 kts 332°
2026-05-06 22:36 39.72633 24.52469 38071 ft 407 kts 332°
2026-05-06 22:37 39.77721 24.49257 38069 ft 407 kts 332°
2026-05-06 22:37 39.82830 24.46027 38053 ft 408 kts 332°
2026-05-06 22:38 39.87936 24.42793 38075 ft 408 kts 332°
2026-05-06 22:38 39.93019 24.39569 38070 ft 408 kts 332°
2026-05-06 22:39 39.98121 24.36327 38064 ft 408 kts 332°
2026-05-06 22:39 40.03244 24.33067 38072 ft 409 kts 332°
2026-05-06 22:40 40.08332 24.29822 38068 ft 409 kts 332°
2026-05-06 22:40 40.13478 24.26537 38065 ft 409 kts 332°
2026-05-06 22:41 40.21125 24.21643 38063 ft 409 kts 332°
2026-05-06 22:42 40.26247 24.18358 38066 ft 409 kts 332°
2026-05-06 22:42 40.31371 24.15067 38059 ft 409 kts 332°
2026-05-06 22:43 40.36443 24.11802 38065 ft 409 kts 332°
2026-05-06 22:43 40.41554 24.08508 38065 ft 409 kts 331°
2026-05-06 22:44 40.46639 24.05225 38062 ft 408 kts 332°
2026-05-06 22:44 40.51718 24.01941 38063 ft 405 kts 332°
2026-05-06 22:45 40.56806 23.98644 38067 ft 405 kts 332°
2026-05-06 22:45 40.61837 23.95409 38066 ft 405 kts 332°
2026-05-06 22:46 40.66917 23.92217 38072 ft 405 kts 333°
2026-05-06 22:46 40.72008 23.89031 38068 ft 405 kts 333°
2026-05-06 22:47 40.77096 23.85834 38070 ft 405 kts 333°
2026-05-06 22:47 40.82193 23.82620 38073 ft 405 kts 332°
2026-05-06 22:48 40.87291 23.79398 38077 ft 405 kts 332°
2026-05-06 22:48 40.92362 23.76188 38079 ft 406 kts 332°
2026-05-06 22:49 40.97459 23.72956 38071 ft 405 kts 332°
2026-05-06 22:49 41.02527 23.69738 38078 ft 404 kts 332°
2026-05-06 22:50 41.07581 23.66522 38073 ft 404 kts 332°
2026-05-06 22:50 41.12653 23.63289 38078 ft 404 kts 332°
2026-05-06 22:51 41.17726 23.60051 38081 ft 404 kts 332°
2026-05-06 22:51 41.22793 23.56811 38077 ft 404 kts 332°
2026-05-06 22:52 41.27838 23.53575 38086 ft 404 kts 332°
2026-05-06 22:52 41.32904 23.50317 38082 ft 404 kts 332°
2026-05-06 22:53 41.37942 23.47073 38087 ft 404 kts 332°
2026-05-06 22:53 41.43005 23.43797 38082 ft 404 kts 332°
2026-05-06 22:54 41.48072 23.40498 38080 ft 402 kts 332°
2026-05-06 22:54 41.53054 23.37245 38082 ft 401 kts 332°
2026-05-06 22:55 41.58062 23.33971 38081 ft 400 kts 332°
2026-05-06 22:55 41.63075 23.30689 38082 ft 400 kts 332°
2026-05-06 22:56 41.68057 23.27422 38084 ft 400 kts 332°
2026-05-06 22:56 41.73060 23.24136 38087 ft 400 kts 332°
2026-05-06 22:57 41.78076 23.20836 38084 ft 400 kts 332°
2026-05-06 22:57 41.83078 23.17538 38089 ft 400 kts 332°
2026-05-06 22:58 41.88050 23.14255 38076 ft 400 kts 332°
2026-05-06 22:58 41.93060 23.10941 38079 ft 400 kts 332°
2026-05-06 22:59 41.98058 23.07630 38075 ft 398 kts 332°
2026-05-06 22:59 42.02994 23.04354 38072 ft 397 kts 332°
2026-05-06 23:00 42.07954 23.01056 38069 ft 397 kts 332°
2026-05-06 23:00 42.12873 22.97779 38064 ft 396 kts 332°
2026-05-06 23:01 42.17825 22.94475 38065 ft 396 kts 332°
2026-05-06 23:01 42.22786 22.91158 38060 ft 396 kts 332°
2026-05-06 23:02 42.27699 22.87870 38068 ft 396 kts 332°
2026-05-06 23:02 42.32653 22.84546 38058 ft 396 kts 332°
2026-05-06 23:03 42.37574 22.81239 38052 ft 397 kts 332°
2026-05-06 23:03 42.42525 22.77906 38049 ft 397 kts 332°
2026-05-06 23:04 42.47489 22.74558 38055 ft 399 kts 332°
2026-05-06 23:04 42.52450 22.71208 38065 ft 399 kts 332°
2026-05-06 23:05 42.57417 22.67847 38065 ft 399 kts 332°
2026-05-06 23:05 42.62403 22.64467 38066 ft 399 kts 332°
2026-05-06 23:06 42.67343 22.61112 38064 ft 399 kts 332°
2026-05-06 23:06 42.72315 22.57728 38067 ft 399 kts 331°
2026-05-06 23:07 42.77286 22.54340 38063 ft 398 kts 331°
2026-05-06 23:07 42.82226 22.50967 38059 ft 398 kts 331°
2026-05-06 23:08 42.87000 22.47123 38063 ft 400 kts 325°
2026-05-06 23:08 42.91664 22.42911 38058 ft 401 kts 324°
2026-05-06 23:09 42.96272 22.38660 38061 ft 400 kts 324°
2026-05-06 23:09 43.00877 22.34400 38052 ft 398 kts 324°
2026-05-06 23:10 43.05453 22.30169 38056 ft 399 kts 323°
2026-05-06 23:10 43.10064 22.25903 38042 ft 401 kts 323°
2026-05-06 23:11 43.14696 22.21612 38040 ft 401 kts 323°
2026-05-06 23:11 43.19298 22.17342 38042 ft 401 kts 323°
2026-05-06 23:12 43.23922 22.13043 38029 ft 401 kts 323°
2026-05-06 23:12 43.28539 22.08742 38024 ft 401 kts 323°
2026-05-06 23:13 43.33126 22.04461 38020 ft 400 kts 323°
2026-05-06 23:13 43.37752 22.00134 38022 ft 400 kts 323°
2026-05-06 23:14 43.42356 21.95821 38034 ft 400 kts 322°
2026-05-06 23:14 43.46947 21.91512 38018 ft 401 kts 322°
2026-05-06 23:15 43.51555 21.87178 38022 ft 402 kts 322°
2026-05-06 23:15 43.56180 21.82821 38025 ft 402 kts 322°
2026-05-06 23:16 43.60776 21.78482 38020 ft 402 kts 322°
2026-05-06 23:16 43.65399 21.74110 38017 ft 402 kts 322°
2026-05-06 23:17 43.70016 21.69735 38015 ft 404 kts 322°
2026-05-06 23:17 43.74635 21.65351 38011 ft 404 kts 322°
2026-05-06 23:18 43.79265 21.60947 38009 ft 403 kts 322°
2026-05-06 23:18 43.83894 21.56536 38009 ft 403 kts 322°
2026-05-06 23:19 43.88503 21.52135 38007 ft 403 kts 322°
2026-05-06 23:19 43.93105 21.47732 38003 ft 404 kts 322°
2026-05-06 23:20 43.97747 21.43282 38002 ft 405 kts 322°
2026-05-06 23:20 44.02373 21.38841 37995 ft 405 kts 321°
2026-05-06 23:21 44.07008 21.34381 37990 ft 405 kts 321°
2026-05-06 23:21 44.11649 21.29907 37988 ft 405 kts 321°
2026-05-06 23:22 44.16260 21.25454 37990 ft 405 kts 321°
2026-05-06 23:22 44.20904 21.20959 37985 ft 407 kts 321°
2026-05-06 23:23 44.25558 21.16445 37963 ft 407 kts 321°
2026-05-06 23:23 44.29442 21.12673 37964 ft 407 kts 321°
2026-05-06 23:24 44.34061 21.08178 37986 ft 407 kts 321°
2026-05-06 23:24 44.38727 21.03628 37979 ft 407 kts 321°
2026-05-06 23:25 44.43355 20.99106 37969 ft 408 kts 321°
2026-05-06 23:25 44.48020 20.94539 37966 ft 409 kts 321°
2026-05-06 23:26 44.52658 20.89990 37966 ft 409 kts 321°
2026-05-06 23:26 44.57312 20.85416 37964 ft 409 kts 321°
2026-05-06 23:27 44.61974 20.80824 37971 ft 409 kts 321°
2026-05-06 23:27 44.66628 20.76231 37962 ft 411 kts 321°
2026-05-06 23:28 44.71314 20.71596 37960 ft 412 kts 321°
2026-05-06 23:28 44.75998 20.66956 37958 ft 412 kts 321°
2026-05-06 23:29 44.80680 20.62309 37962 ft 412 kts 321°
2026-05-06 23:29 44.85374 20.57640 37974 ft 412 kts 321°
2026-05-06 23:30 44.90045 20.52984 37963 ft 412 kts 321°
2026-05-06 23:30 44.94724 20.48310 37962 ft 412 kts 321°
2026-05-06 23:31 44.99422 20.43608 37963 ft 412 kts 320°
2026-05-06 23:31 45.04076 20.38940 37952 ft 412 kts 320°
2026-05-06 23:32 45.08745 20.34247 37966 ft 412 kts 320°
2026-05-06 23:32 45.13433 20.29526 37964 ft 412 kts 320°
2026-05-06 23:33 45.18120 20.24796 37952 ft 413 kts 320°
2026-05-06 23:33 45.22777 20.20086 37953 ft 414 kts 320°
2026-05-06 23:34 45.27474 20.15326 37949 ft 413 kts 320°
2026-05-06 23:34 45.32135 20.10595 37964 ft 413 kts 320°
2026-05-06 23:35 45.36826 20.05821 37949 ft 415 kts 320°
2026-05-06 23:35 45.41527 20.01028 37953 ft 415 kts 320°
2026-05-06 23:36 45.46234 19.96218 37949 ft 416 kts 320°
2026-05-06 23:36 45.50922 19.91419 37948 ft 416 kts 320°
2026-05-06 23:37 45.55638 19.86581 37954 ft 416 kts 320°
2026-05-06 23:37 45.60319 19.81767 37954 ft 418 kts 319°
2026-05-06 23:38 45.65045 19.76897 37964 ft 418 kts 320°
2026-05-06 23:38 45.69772 19.72015 37947 ft 419 kts 320°
2026-05-06 23:39 45.74493 19.67130 37945 ft 419 kts 320°
2026-05-06 23:39 45.79223 19.62226 37942 ft 419 kts 320°
2026-05-06 23:40 45.83944 19.57320 37946 ft 419 kts 320°
2026-05-06 23:40 45.88657 19.52412 37951 ft 419 kts 320°
2026-05-06 23:41 45.93389 19.47473 37940 ft 420 kts 320°
2026-05-06 23:41 45.98116 19.42528 37960 ft 420 kts 320°
2026-05-06 23:42 46.02850 19.37566 37945 ft 420 kts 320°
2026-05-06 23:42 46.07451 19.32469 37945 ft 419 kts 316°
2026-05-06 23:43 46.11902 19.27085 37947 ft 419 kts 315°
2026-05-06 23:43 46.16354 19.21628 37951 ft 419 kts 315°
2026-05-06 23:44 46.20811 19.16200 37948 ft 420 kts 316°
2026-05-06 23:44 46.25297 19.10758 37953 ft 420 kts 316°
2026-05-06 23:45 46.29762 19.05338 37944 ft 421 kts 315°
2026-05-06 23:45 46.34268 18.99855 37944 ft 422 kts 315°
2026-05-06 23:46 46.38734 18.94408 37940 ft 422 kts 315°
2026-05-06 23:46 46.43225 18.88916 37950 ft 422 kts 315°
2026-05-06 23:47 46.47691 18.83443 37952 ft 423 kts 315°
2026-05-06 23:47 46.52200 18.77905 37936 ft 424 kts 315°
2026-05-06 23:48 46.56688 18.72380 37937 ft 424 kts 315°
2026-05-06 23:48 46.61205 18.66808 37934 ft 424 kts 315°
2026-05-06 23:49 46.65680 18.61274 37932 ft 424 kts 315°
2026-05-06 23:49 46.70184 18.55692 37964 ft 424 kts 314°
2026-05-06 23:50 46.74684 18.50102 37927 ft 426 kts 314°
2026-05-06 23:50 46.81444 18.41679 37924 ft 427 kts 314°
2026-05-06 23:51 46.85983 18.36010 37925 ft 427 kts 314°
2026-05-06 23:51 46.90480 18.30381 37925 ft 427 kts 314°
2026-05-06 23:52 46.95000 18.24709 37921 ft 427 kts 314°
2026-05-06 23:52 46.99517 18.19025 37923 ft 428 kts 314°
2026-05-06 23:53 47.04037 18.13325 37911 ft 430 kts 314°
2026-05-06 23:53 47.08550 18.07623 37915 ft 430 kts 314°
2026-05-06 23:54 47.13100 18.01860 37916 ft 430 kts 314°
2026-05-06 23:54 47.17608 17.96138 37910 ft 430 kts 313°
2026-05-06 23:55 47.22148 17.90360 37897 ft 431 kts 313°
2026-05-06 23:55 47.26650 17.84616 37899 ft 430 kts 314°
2026-05-06 23:56 47.31172 17.78836 37890 ft 428 kts 314°
2026-05-06 23:56 47.35647 17.73101 37885 ft 428 kts 314°
2026-05-06 23:57 47.40148 17.67317 37882 ft 428 kts 313°
2026-05-06 23:57 47.44647 17.61521 37884 ft 429 kts 313°
2026-05-06 23:58 47.49135 17.55730 37881 ft 429 kts 313°
2026-05-06 23:58 47.53642 17.49899 37878 ft 429 kts 313°
2026-05-06 23:59 47.58141 17.44065 37875 ft 429 kts 313°
2026-05-06 23:59 47.62642 17.38214 37876 ft 431 kts 313°
2026-05-07 00:00 47.67156 17.32328 37863 ft 434 kts 313°
2026-05-07 00:00 47.70931 17.27398 37861 ft 434 kts 313°
2026-05-07 00:01 47.76209 17.20491 37860 ft 434 kts 313°
2026-05-07 00:01 47.80746 17.14539 37864 ft 435 kts 313°
2026-05-07 00:02 47.85625 17.09092 37864 ft 443 kts 320°
2026-05-07 00:02 47.90813 17.04052 37852 ft 447 kts 322°
2026-05-07 00:03 47.96074 16.99072 37843 ft 448 kts 322°
2026-05-07 00:03 48.01313 16.94105 37846 ft 448 kts 322°
2026-05-07 00:04 48.06551 16.89106 37851 ft 447 kts 322°
2026-05-07 00:04 48.11760 16.84113 37852 ft 446 kts 322°
2026-05-07 00:05 48.16962 16.79110 37849 ft 445 kts 321°
2026-05-07 00:05 48.22171 16.74088 37854 ft 445 kts 321°
2026-05-07 00:06 48.27369 16.69065 37852 ft 445 kts 321°
2026-05-07 00:06 48.32586 16.64013 37861 ft 445 kts 321°
2026-05-07 00:07 48.37762 16.58987 37852 ft 445 kts 321°
2026-05-07 00:07 48.42978 16.53910 37841 ft 447 kts 321°
2026-05-07 00:08 48.48220 16.48794 37840 ft 448 kts 321°
2026-05-07 00:08 48.53438 16.43692 37829 ft 449 kts 321°
2026-05-07 00:09 48.57733 16.39482 37839 ft 449 kts 321°
2026-05-07 00:09 48.62978 16.34329 37819 ft 448 kts 321°
2026-05-07 00:10 48.68186 16.29197 37839 ft 448 kts 321°
2026-05-07 00:10 48.73371 16.24075 37816 ft 451 kts 321°
2026-05-07 00:11 48.78882 16.19483 37816 ft 458 kts 331°
2026-05-07 00:11 48.84782 16.15749 37814 ft 460 kts 333°
2026-05-07 00:12 48.90750 16.12177 37820 ft 460 kts 334°
2026-05-07 00:12 48.96692 16.08632 37820 ft 460 kts 333°
2026-05-07 00:13 49.02662 16.05038 37825 ft 460 kts 333°
2026-05-07 00:13 49.08624 16.01423 37829 ft 462 kts 333°
2026-05-07 00:14 49.14581 15.97799 37828 ft 463 kts 333°
2026-05-07 00:14 49.20592 15.94134 37829 ft 463 kts 333°
2026-05-07 00:15 49.26577 15.90476 37809 ft 463 kts 333°
2026-05-07 00:15 49.32571 15.86803 37811 ft 463 kts 333°
2026-05-07 00:16 49.38523 15.83145 37815 ft 463 kts 333°
2026-05-07 00:16 49.44529 15.79443 37816 ft 462 kts 332°
2026-05-07 00:17 49.50187 15.74959 37818 ft 456 kts 325°
2026-05-07 00:17 49.55717 15.70154 37815 ft 455 kts 324°
2026-05-07 00:18 49.61188 15.65301 37813 ft 455 kts 324°
2026-05-07 00:18 49.66666 15.60432 37750 ft 452 kts 324°
2026-05-07 00:19 49.69362 15.58038 37271 ft 450 kts 324°
2026-05-07 00:19 49.72080 15.55623 36682 ft 449 kts 324°
2026-05-07 00:19 49.74820 15.53186 36071 ft 449 kts 323°
2026-05-07 00:19 49.77526 15.50776 35507 ft 450 kts 323°
2026-05-07 00:20 49.80213 15.48380 34861 ft 451 kts 323°
2026-05-07 00:20 49.82934 15.45948 34244 ft 453 kts 323°
2026-05-07 00:20 49.85677 15.43494 33896 ft 456 kts 323°
2026-05-07 00:20 49.88420 15.41036 33819 ft 459 kts 323°
2026-05-07 00:21 49.93987 15.36043 33807 ft 460 kts 323°
2026-05-07 00:21 49.99491 15.31100 33798 ft 460 kts 323°
2026-05-07 00:22 50.05052 15.26089 33801 ft 460 kts 322°
2026-05-07 00:22 50.10596 15.21077 33804 ft 462 kts 323°
2026-05-07 00:23 50.16182 15.16010 33805 ft 464 kts 323°
2026-05-07 00:23 50.21759 15.10942 33803 ft 464 kts 323°
2026-05-07 00:24 50.24530 15.08421 33378 ft 462 kts 323°
2026-05-07 00:24 50.27278 15.05917 32755 ft 461 kts 323°
2026-05-07 00:24 50.30059 15.03378 32080 ft 461 kts 323°
2026-05-07 00:24 50.32822 15.00849 31398 ft 462 kts 323°
2026-05-07 00:25 50.35617 14.98288 30718 ft 462 kts 324°
2026-05-07 00:25 50.38382 14.95752 30128 ft 461 kts 324°
2026-05-07 00:25 50.41151 14.93209 29527 ft 459 kts 325°
2026-05-07 00:25 50.43896 14.90687 28928 ft 455 kts 325°
2026-05-07 00:26 50.46626 14.88280 28376 ft 454 kts 329°
2026-05-07 00:26 50.49557 14.86426 27831 ft 455 kts 339°
2026-05-07 00:26 50.52607 14.85052 27300 ft 452 kts 341°
2026-05-07 00:26 50.55595 14.83855 26621 ft 446 kts 343°
2026-05-07 00:27 50.58629 14.82731 25809 ft 442 kts 343°
2026-05-07 00:27 50.61583 14.81675 25070 ft 437 kts 344°
2026-05-07 00:27 50.64543 14.80628 24347 ft 432 kts 344°
2026-05-07 00:27 50.67449 14.79595 23660 ft 426 kts 344°
2026-05-07 00:28 50.70326 14.78560 22860 ft 421 kts 344°
2026-05-07 00:28 50.73182 14.77522 22028 ft 416 kts 344°
2026-05-07 00:28 50.75980 14.76498 21262 ft 411 kts 344°
2026-05-07 00:28 50.78747 14.75480 20492 ft 406 kts 344°
2026-05-07 00:29 50.81480 14.74473 19759 ft 400 kts 344°
2026-05-07 00:29 50.84154 14.73486 19005 ft 395 kts 344°
2026-05-07 00:30 50.92098 14.70544 17725 ft 385 kts 344°
2026-05-07 00:30 50.94686 14.69571 17029 ft 379 kts 343°
2026-05-07 00:30 50.97238 14.68572 16241 ft 374 kts 343°
2026-05-07 00:30 50.99737 14.67571 15497 ft 369 kts 343°
2026-05-07 00:31 51.02209 14.66572 14764 ft 363 kts 343°
2026-05-07 00:31 51.04619 14.65595 14051 ft 358 kts 343°
2026-05-07 00:31 51.07025 14.64619 13308 ft 354 kts 343°
2026-05-07 00:31 51.09376 14.63668 12542 ft 349 kts 343°
2026-05-07 00:32 51.11736 14.62714 11775 ft 344 kts 343°
2026-05-07 00:32 51.14039 14.61784 11047 ft 339 kts 343°
2026-05-07 00:32 51.16309 14.60868 10332 ft 334 kts 343°
2026-05-07 00:32 51.18525 14.59971 9619 ft 330 kts 343°
2026-05-07 00:33 51.20716 14.59086 9184 ft 317 kts 343°
2026-05-07 00:33 51.22821 14.58237 8977 ft 303 kts 343°
2026-05-07 00:33 51.24827 14.57426 8756 ft 293 kts 343°
2026-05-07 00:33 51.26785 14.56630 8406 ft 288 kts 343°
2026-05-07 00:34 51.28702 14.55847 8018 ft 285 kts 343°
2026-05-07 00:34 51.30623 14.55061 7841 ft 283 kts 343°
2026-05-07 00:34 51.32536 14.54278 7825 ft 284 kts 343°
2026-05-07 00:34 51.34452 14.53493 7826 ft 284 kts 343°
2026-05-07 00:35 51.36374 14.52707 7828 ft 284 kts 344°
2026-05-07 00:35 51.38320 14.52077 7837 ft 285 kts 349°
2026-05-07 00:35 51.40290 14.51650 7837 ft 286 kts 351°
2026-05-07 00:35 51.42272 14.51301 7837 ft 286 kts 352°
2026-05-07 00:36 51.44231 14.51000 7834 ft 286 kts 353°
2026-05-07 00:36 51.46207 14.50713 7837 ft 286 kts 353°
2026-05-07 00:36 51.48189 14.50423 7836 ft 286 kts 352°
2026-05-07 00:36 51.50113 14.49766 7833 ft 282 kts 334°
2026-05-07 00:37 51.51680 14.47946 7839 ft 276 kts 308°
2026-05-07 00:37 51.52726 14.45377 7837 ft 275 kts 297°
2026-05-07 00:37 51.53619 14.42652 7839 ft 275 kts 295°
2026-05-07 00:37 51.54496 14.39910 7837 ft 276 kts 295°
2026-05-07 00:38 51.55366 14.37179 7837 ft 276 kts 295°
2026-05-07 00:38 51.56231 14.34459 7835 ft 276 kts 295°
2026-05-07 00:38 51.57104 14.31704 7842 ft 276 kts 295°
2026-05-07 00:38 51.57974 14.28951 7839 ft 276 kts 295°
2026-05-07 00:39 51.58848 14.26196 7841 ft 276 kts 295°
2026-05-07 00:39 51.59720 14.23444 7841 ft 276 kts 295°
2026-05-07 00:39 51.60580 14.20724 7841 ft 276 kts 295°
2026-05-07 00:39 51.61454 14.17964 7839 ft 275 kts 295°
2026-05-07 00:40 51.62324 14.15216 7844 ft 275 kts 295°
2026-05-07 00:40 51.63194 14.12465 7542 ft 274 kts 295°
2026-05-07 00:40 51.64125 14.09813 7135 ft 273 kts 301°
2026-05-07 00:40 51.65229 14.07324 6726 ft 272 kts 304°
2026-05-07 00:41 51.66372 14.04873 6321 ft 271 kts 305°
2026-05-07 00:41 51.67497 14.02461 6021 ft 268 kts 305°
2026-05-07 00:41 51.68625 14.00046 5955 ft 268 kts 305°
2026-05-07 00:41 51.69718 13.97661 5956 ft 269 kts 305°
2026-05-07 00:42 51.70835 13.95211 5958 ft 269 kts 305°
2026-05-07 00:42 51.71948 13.92770 5960 ft 272 kts 305°
2026-05-07 00:42 51.73112 13.90197 5954 ft 299 kts 305°
2026-05-07 00:42 51.74411 13.87331 5947 ft 327 kts 305°
2026-05-07 00:43 51.75758 13.84379 5956 ft 333 kts 305°
2026-05-07 00:43 51.77131 13.81372 5960 ft 333 kts 305°
2026-05-07 00:43 51.78509 13.78356 5960 ft 333 kts 305°
2026-05-07 00:43 51.79890 13.75342 5960 ft 333 kts 305°
2026-05-07 00:44 51.81271 13.72327 5967 ft 333 kts 305°
2026-05-07 00:44 51.82629 13.69320 5967 ft 332 kts 305°
2026-05-07 00:44 51.83986 13.66292 5966 ft 332 kts 305°
2026-05-07 00:44 51.85343 13.63261 5966 ft 332 kts 305°
2026-05-07 00:45 51.86697 13.60232 5964 ft 328 kts 305°
2026-05-07 00:45 51.87993 13.57336 5969 ft 307 kts 305°
2026-05-07 00:45 51.89196 13.54652 5979 ft 285 kts 305°
2026-05-07 00:45 51.90335 13.52114 5977 ft 268 kts 305°
2026-05-07 00:46 51.91423 13.49677 5974 ft 266 kts 305°
2026-05-07 00:46 51.92496 13.47257 5971 ft 268 kts 305°
2026-05-07 00:46 51.93585 13.44796 5970 ft 269 kts 305°
2026-05-07 00:46 51.94674 13.42341 5970 ft 268 kts 304°
2026-05-07 00:47 51.95774 13.39881 5972 ft 267 kts 305°
2026-05-07 00:47 51.96855 13.37470 5972 ft 266 kts 305°
2026-05-07 00:47 51.97942 13.35048 5972 ft 266 kts 305°
2026-05-07 00:47 51.99037 13.32610 5726 ft 265 kts 305°
2026-05-07 00:48 52.00120 13.30176 5252 ft 266 kts 305°
2026-05-07 00:48 52.01175 13.27744 4781 ft 267 kts 305°
2026-05-07 00:48 52.02237 13.25276 4416 ft 264 kts 305°
2026-05-07 00:48 52.03276 13.22837 4023 ft 261 kts 305°
2026-05-07 00:49 52.04310 13.20416 3566 ft 262 kts 305°
2026-05-07 00:49 52.05346 13.18000 3271 ft 252 kts 305°
2026-05-07 00:49 52.06301 13.15779 3111 ft 235 kts 304°
2026-05-07 00:49 52.07202 13.13676 3005 ft 216 kts 305°
2026-05-07 00:50 52.08008 13.11776 2991 ft 195 kts 305°
2026-05-07 00:50 52.08760 13.09997 2989 ft 189 kts 304°
2026-05-07 00:50 52.09505 13.08236 2980 ft 189 kts 305°
2026-05-07 00:50 52.10249 13.06474 2988 ft 189 kts 304°
2026-05-07 00:51 52.10994 13.04712 2988 ft 189 kts 304°
2026-05-07 00:51 52.11740 13.02950 2988 ft 189 kts 304°
2026-05-07 00:51 52.12235 13.01779 2988 ft 189 kts 304°
2026-05-07 00:51 52.12980 13.00020 2986 ft 188 kts 305°
2026-05-07 00:52 52.14316 12.98339 2984 ft 186 kts 349°
2026-05-07 00:52 52.15594 12.98456 2998 ft 185 kts 14°
2026-05-07 00:52 52.16829 12.99066 2997 ft 186 kts 19°
2026-05-07 00:52 52.17642 12.99520 2994 ft 187 kts 19°
2026-05-07 00:53 52.18872 13.00220 2993 ft 187 kts 20°
2026-05-07 00:53 52.20060 13.01052 2994 ft 186 kts 30°
2026-05-07 00:53 52.21159 13.02192 2994 ft 186 kts 34°
2026-05-07 00:53 52.22226 13.03371 2989 ft 186 kts 34°
2026-05-07 00:54 52.23278 13.04610 2989 ft 186 kts 40°
2026-05-07 00:54 52.24208 13.06053 2994 ft 186 kts 46°
2026-05-07 00:54 52.25052 13.07663 2993 ft 186 kts 56°
2026-05-07 00:54 52.25654 13.09524 2993 ft 185 kts 67°
2026-05-07 00:55 52.26123 13.11471 2993 ft 186 kts 69°
2026-05-07 00:55 52.26587 13.13444 2993 ft 185 kts 69°
2026-05-07 00:55 52.27035 13.15329 2980 ft 167 kts 69°
2026-05-07 00:55 52.27432 13.16988 2995 ft 150 kts 66°
2026-05-07 00:56 52.27807 13.18544 2994 ft 145 kts 66°
2026-05-07 00:56 52.28175 13.20068 2994 ft 146 kts 67°
2026-05-07 00:56 52.28546 13.21614 2996 ft 145 kts 68°
2026-05-07 00:56 52.28913 13.23152 3016 ft 144 kts 67°
2026-05-07 00:57 52.29274 13.24669 3008 ft 143 kts 67°
2026-05-07 00:57 52.29635 13.26192 2941 ft 144 kts 68°
2026-05-07 00:57 52.29994 13.27707 2751 ft 144 kts 67°
2026-05-07 00:57 52.30353 13.29213 2536 ft 141 kts 67°
2026-05-07 00:58 52.30706 13.30696 2345 ft 139 kts 68°
2026-05-07 00:58 52.31057 13.32171 2148 ft 138 kts 67°
2026-05-07 00:58 52.31395 13.33595 2021 ft 131 kts 67°
2026-05-07 00:58 52.31730 13.35001 1794 ft 134 kts 68°
2026-05-07 00:59 52.32400 13.37823 1410 ft 133 kts 66°
2026-05-07 00:59 52.32728 13.39231 1245 ft 133 kts 68°
2026-05-07 00:59 52.33050 13.40664 1045 ft 134 kts 67°
2026-05-07 01:00 52.33388 13.42078 858 ft 135 kts 67°
2026-05-07 01:00 52.33752 13.43508 666 ft 135 kts 66°
2026-05-07 01:00 52.34070 13.44881 430 ft 123 kts 70°
2026-05-07 01:00 52.34369 13.46129 292 ft 114 kts 64°
2026-05-07 01:01 52.34677 13.47409 250 ft 113 kts 65°
2026-05-07 01:01 52.34956 13.48537 158 ft 98 kts 66°
2026-05-07 01:01 52.35141 13.49347 159 ft 54 kts 71°
2026-05-07 01:01 52.35198 13.49585 158 ft 10 kts 68°
2026-05-07 01:02 52.35226 13.49697 157 ft 11 kts 68°
2026-05-07 01:02 52.35262 13.49804 157 ft 11 kts 54°
2026-05-07 01:02 52.35314 13.49902 156 ft 12 kts 47°
2026-05-07 01:02 52.35367 13.49980 158 ft 9 kts 39°
2026-05-07 01:03 52.35407 13.50033 159 ft 7 kts 39°
2026-05-07 01:03 52.35415 13.50043 159 ft 0 kts 39°
2026-05-07 01:03 52.35417 13.50046 159 ft 2 kts 39°
2026-05-07 01:04 52.35435 13.50070 160 ft 5 kts 39°
2026-05-07 01:04 52.35470 13.50116 160 ft 8 kts 39°
2026-05-07 01:04 52.35519 13.50182 161 ft 11 kts 39°
2026-05-07 01:04 52.35583 13.50270 161 ft 12 kts 45°
2026-05-07 01:05 52.35619 13.50385 161 ft 12 kts 70°
2026-05-07 01:05 52.35651 13.50510 161 ft 12 kts 66°
2026-05-07 01:05 52.35683 13.50645 161 ft 13 kts 67°
2026-05-07 01:05 52.35733 13.50691 161 ft 6 kts
2026-05-07 01:06 52.35773 13.50667 161 ft 6 kts 338°
2026-05-07 01:06 52.35817 13.50638 161 ft 7 kts 338°
2026-05-07 01:06 52.35841 13.50594 161 ft 5 kts 268°
2026-05-07 01:06 52.35835 13.50545 161 ft 4 kts 256°
2026-05-07 01:07 52.35827 13.50498 162 ft 4 kts 256°
2026-05-07 01:07 52.35826 13.50490 162 ft 0 kts 256°